DENTE EDDG-EDDG

Flight info

Callsign DENTE
Flight time 0h 4m
Altitude
Route
Aircraft C172

Departure

Time 2026-04-25 13:14
Airport Münster Osnabrück Airport (EDDG)

Arrival

Time 2026-04-25 13:19
Airport Münster Osnabrück Airport (EDDG)
Time Latitude Longitude Altitude Speed Heading
2026-04-25 13:08 52.13106 7.68236 161 ft 0 kts 270°
2026-04-25 13:11 52.13106 7.68231 161 ft 2 kts 270°
2026-04-25 13:11 52.13110 7.68211 161 ft 3 kts 308°
2026-04-25 13:11 52.13135 7.68204 161 ft 6 kts
2026-04-25 13:11 52.13174 7.68217 161 ft 5 kts 53°
2026-04-25 13:12 52.13184 7.68271 161 ft 5 kts 72°
2026-04-25 13:12 52.13202 7.68343 161 ft 9 kts 38°
2026-04-25 13:12 52.13244 7.68330 161 ft 5 kts 339°
2026-04-25 13:12 52.13264 7.68318 161 ft 4 kts 340°
2026-04-25 13:13 52.13293 7.68302 161 ft 5 kts 341°
2026-04-25 13:13 52.13341 7.68276 162 ft 10 kts 342°
2026-04-25 13:13 52.13397 7.68196 162 ft 13 kts 277°
2026-04-25 13:13 52.13343 7.67911 160 ft 49 kts 251°
2026-04-25 13:14 52.13199 7.67228 262 ft 73 kts 251°
2026-04-25 13:14 52.13029 7.66466 517 ft 71 kts 255°
2026-04-25 13:14 52.12885 7.65712 752 ft 68 kts 254°
2026-04-25 13:14 52.12434 7.65418 876 ft 92 kts 163°
2026-04-25 13:15 52.11838 7.66027 898 ft 109 kts 165°
2026-04-25 13:15 52.11220 7.66631 1158 ft 104 kts 152°
2026-04-25 13:15 52.10680 7.67417 1386 ft 106 kts 124°
2026-04-25 13:15 52.10563 7.68618 1568 ft 109 kts 81°
2026-04-25 13:16 52.10730 7.69869 1728 ft 117 kts 72°
2026-04-25 13:16 52.10977 7.71195 1797 ft 124 kts 69°
2026-04-25 13:16 52.11184 7.72581 1704 ft 133 kts 82°
2026-04-25 13:16 52.11366 7.74046 1573 ft 133 kts 68°
2026-04-25 13:17 52.11869 7.75218 1518 ft 121 kts 29°
2026-04-25 13:17 52.12596 7.75432 1499 ft 104 kts 343°
2026-04-25 13:17 52.13282 7.75049 1341 ft 115 kts 333°
2026-04-25 13:17 52.13965 7.74440 1195 ft 106 kts 310°
2026-04-25 13:18 52.14215 7.73339 852 ft 110 kts 273°
2026-04-25 13:18 52.14161 7.72097 538 ft 107 kts 261°
2026-04-25 13:18 52.14006 7.71125 354 ft 75 kts 253°
2026-04-25 13:18 52.13855 7.70368 272 ft 68 kts 252°
2026-04-25 13:19 52.13710 7.69660 177 ft 62 kts 251°
2026-04-25 13:19 52.13595 7.69097 164 ft 47 kts 251°
2026-04-25 13:19 52.13450 7.68438 206 ft 75 kts 252°
2026-04-25 13:19 52.13339 7.67865 322 ft 81 kts 252°
2026-04-25 13:20 52.13070 7.66599 582 ft 90 kts 253°
2026-04-25 13:20 52.12875 7.65623 794 ft 87 kts 253°
2026-04-25 13:20 52.12604 7.64798 1033 ft 85 kts 224°
2026-04-25 13:20 52.12003 7.64813 1278 ft 90 kts 168°
2026-04-25 13:21 52.11404 7.65256 1411 ft 100 kts 159°
2026-04-25 13:21 52.10760 7.65833 1517 ft 109 kts 150°
2026-04-25 13:21 52.10412 7.66903 1733 ft 112 kts 95°
2026-04-25 13:21 52.10555 7.68208 1769 ft 123 kts 68°
2026-04-25 13:22 52.10866 7.69598 1655 ft 137 kts 65°
2026-04-25 13:22 52.11215 7.71053 1537 ft 135 kts 68°
2026-04-25 13:22 52.11510 7.72481 1473 ft 131 kts 71°
2026-04-25 13:23 52.12480 7.74731 1320 ft 115 kts 13°
2026-04-25 13:23 52.13285 7.74782 1091 ft 117 kts 342°
2026-04-25 13:23 52.13978 7.74188 936 ft 108 kts 314°
2026-04-25 13:23 52.14343 7.73223 765 ft 102 kts 273°
2026-04-25 13:24 52.14226 7.72107 511 ft 104 kts 253°
2026-04-25 13:24 52.13993 7.71034 327 ft 96 kts 253°
2026-04-25 13:24 52.13804 7.70124 226 ft 72 kts 251°